Culpeper, VA

3:44 PM EST on February 19, 2018 (GMT -0500)
Culpeper Regional

Weather History for KCJR - January, 2013

Change the Weather History Date:

Friday, January 25, 2013

  Actual Average (KOMH) Record (KOMH)
Temperature  
Mean Temperature 19 °F -  
Max Temperature 26 °F 45 °F 75 °F (1967)
Min Temperature 12 °F 25 °F -1 °F (1961)
Degree Days  
Heating Degree Days 46    
Moisture  
Dew Point 12 °F    
Average Humidity 74    
Maximum Humidity 93    
Minimum Humidity 43    
Precipitation  
Precipitation 0.00 in - - ()
Sea Level Pressure  
Sea Level Pressure 30.29 in    
Wind  
Wind Speed 3 mph (South)    
Max Wind Speed 13 mph    
Max Gust Speed 20 mph    
Visibility 10 miles    
Events Snow    
Averages and records for this station are not official NWS values.
T = Trace of Precipitation, MM = Missing Value Source: NWS Daily Summary

Daily Weather History Graph

Daily Weather History Graph

Search for Another Location

Airport or City:

Trip Planner

Search our weather history database for the weather conditions in past years. The results will help you decide how hot, cold, wet, or windy it might be!

Date:

Astronomy

Jan. 25, 2013 Rise Set
Actual Time 7:22 AM EST 5:25 PM EST
Civil Twilight 6:53 AM EST 5:54 PM EST
Nautical Twilight 6:21 AM EST 6:26 PM EST
Astronomical Twilight 5:50 AM EST 6:57 PM EST
Moon 4:21 PM EST (1/25) 6:00 AM EST (1/25)
Length of Visible Light 11h 00m
Length of Day
10h 03m
Waxing Gibbous, 98% of the Moon is Illuminated
Jan 25
Waxing Gibbous
Jan 26
Full
Feb 3
Last Quarter
Feb 10
New
Feb 17
First Quarter

Hourly Weather History & Observations

Time (EST) Temp. Windchill Dew Point Humidity Pressure Visibility Wind Dir Wind Speed Gust Speed Precip Events Conditions
12:15 AM 12.2 °F - 8.6 °F 85% 30.52 in 10.0 mi Calm Calm - N/A   Clear
12:35 AM 14.0 °F - 8.6 °F 79% 30.52 in 10.0 mi Calm Calm - N/A   Clear
12:55 AM 14.0 °F - 8.6 °F 79% 30.52 in 10.0 mi Calm Calm - N/A   Clear
1:15 AM 12.2 °F - 8.6 °F 85% 30.52 in 10.0 mi Calm Calm - N/A   Clear
1:35 AM 12.2 °F - 8.6 °F 85% 30.51 in 10.0 mi Calm Calm - N/A   Clear
1:55 AM 12.2 °F - 8.6 °F 85% 30.51 in 10.0 mi Calm Calm - N/A   Clear
2:15 AM 12.2 °F - 6.8 °F 79% 30.50 in 10.0 mi Calm Calm - N/A   Clear
2:35 AM 12.2 °F - 8.6 °F 85% 30.49 in 10.0 mi Calm Calm - N/A   Clear
2:55 AM 12.2 °F - 10.4 °F 92% 30.49 in 10.0 mi Calm Calm - N/A   Clear
3:15 AM 14.0 °F - 8.6 °F 79% 30.49 in 10.0 mi Calm Calm - N/A   Clear
3:35 AM 14.0 °F - 10.4 °F 86% 30.48 in 10.0 mi Calm Calm - N/A   Clear
3:55 AM 14.0 °F - 10.4 °F 86% 30.48 in 10.0 mi Calm Calm - N/A   Clear
4:15 AM 15.8 °F - 10.4 °F 79% 30.48 in 10.0 mi Calm Calm - N/A   Clear
4:35 AM 15.8 °F - 10.4 °F 79% 30.48 in 10.0 mi Calm Calm - N/A   Clear
4:55 AM 15.8 °F - 12.2 °F 86% 30.48 in 10.0 mi Calm Calm - N/A   Clear
5:15 AM 15.8 °F - 12.2 °F 86% 30.49 in 10.0 mi Calm Calm - N/A   Clear
5:35 AM 15.8 °F - 12.2 °F 86% 30.49 in 10.0 mi Calm Calm - N/A   Clear
5:55 AM 15.8 °F - 12.2 °F 86% 30.48 in 10.0 mi Calm Calm - N/A   Clear
6:15 AM 14.0 °F - 10.4 °F 86% 30.46 in 10.0 mi Calm Calm - N/A   Clear
6:35 AM 14.0 °F - 12.2 °F 93% 30.46 in 10.0 mi Calm Calm - N/A   Clear
6:55 AM 14.0 °F - 12.2 °F 93% 30.47 in 10.0 mi Calm Calm - N/A   Clear
7:15 AM 14.0 °F - 12.2 °F 93% 30.47 in 10.0 mi Calm Calm - N/A   Clear
7:35 AM 15.8 °F - 12.2 °F 86% 30.47 in 10.0 mi Calm Calm - N/A   Clear
7:55 AM 17.6 °F - 10.4 °F 73% 30.46 in 10.0 mi Calm Calm - N/A   Clear
8:35 AM 17.6 °F - 10.4 °F 73% 30.44 in 10.0 mi Calm Calm - N/A   Clear
8:55 AM 19.4 °F 12.8 °F 10.4 °F 68% 30.42 in 10.0 mi South 4.6 mph - N/A   Clear
9:15 AM 19.4 °F 12.8 °F 8.6 °F 63% 30.42 in 10.0 mi South 4.6 mph - N/A   Clear
9:35 AM 21.2 °F 12.6 °F 10.4 °F 63% 30.41 in 10.0 mi South 6.9 mph - N/A   Clear
9:55 AM 21.2 °F 11.7 °F 8.6 °F 58% 30.41 in 10.0 mi South 8.1 mph - N/A   Clear
10:15 AM 21.2 °F 10.1 °F 6.8 °F 54% 30.41 in 10.0 mi South 10.4 mph 17.3 mph N/A   Clear
10:35 AM 21.2 °F 12.6 °F 3.2 °F 46% 30.39 in 10.0 mi South 6.9 mph - N/A   Scattered Clouds
10:55 AM 23.0 °F 14.7 °F 5.0 °F 46% 30.38 in 10.0 mi SSE 6.9 mph - N/A   Mostly Cloudy
11:15 AM 23.0 °F 11.7 °F 6.8 °F 50% 30.36 in 10.0 mi South 11.5 mph 18.4 mph N/A   Mostly Cloudy
11:35 AM 24.8 °F 19.1 °F 6.8 °F 46% 30.34 in 10.0 mi South 4.6 mph - N/A   Clear
11:55 AM 24.8 °F 16.1 °F 5.0 °F 43% 30.33 in 10.0 mi SSW 8.1 mph - N/A   Clear
12:15 PM 24.8 °F 15.3 °F 6.8 °F 46% 30.31 in 10.0 mi South 9.2 mph - N/A   Clear
12:35 PM 24.8 °F 16.9 °F 6.8 °F 46% 30.29 in 10.0 mi South 6.9 mph - N/A   Scattered Clouds
12:55 PM 24.8 °F 16.9 °F 6.8 °F 46% 30.27 in 10.0 mi South 6.9 mph - N/A   Scattered Clouds
1:15 PM 24.8 °F 16.1 °F 6.8 °F 46% 30.23 in 10.0 mi South 8.1 mph - N/A   Clear
1:35 PM 26.6 °F 16.8 °F 6.8 °F 43% 30.21 in 10.0 mi South 10.4 mph - N/A   Clear
1:55 PM 24.8 °F 14.0 °F 6.8 °F 46% 30.21 in 10.0 mi South 11.5 mph - N/A   Scattered Clouds
2:15 PM 24.8 °F 14.0 °F 6.8 °F 46% 30.19 in 10.0 mi SSW 11.5 mph 19.6 mph N/A   Overcast
2:35 PM 24.8 °F 14.6 °F 8.6 °F 50% 30.18 in 10.0 mi South 10.4 mph 16.1 mph N/A   Overcast
2:55 PM 23.0 °F 11.1 °F 12.2 °F 63% 30.17 in 5.0 mi South 12.7 mph 18.4 mph N/A   Haze
3:15 PM 23.0 °F 12.4 °F 12.2 °F 63% 30.16 in 10.0 mi South 10.4 mph 16.1 mph N/A   Overcast
3:35 PM 23.0 °F 12.4 °F 12.2 °F 63% 30.16 in 10.0 mi SSW 10.4 mph - N/A   Overcast
3:55 PM 23.0 °F 13.9 °F 14.0 °F 68% 30.16 in 10.0 mi South 8.1 mph 16.1 mph N/A   Overcast
4:15 PM 23.0 °F 14.7 °F 15.8 °F 74% 30.16 in 4.0 mi South 6.9 mph - N/A Snow Light Snow
4:35 PM 23.0 °F 15.8 °F 15.8 °F 74% 30.15 in 4.0 mi South 5.8 mph - N/A Snow Light Snow
4:55 PM 21.2 °F 13.6 °F 17.6 °F 86% 30.13 in 2.5 mi South 5.8 mph - N/A Snow Light Snow
5:15 PM 21.2 °F 13.6 °F 17.6 °F 86% 30.13 in 5.0 mi South 5.8 mph - N/A Snow Light Snow
5:35 PM 21.2 °F 14.9 °F 17.6 °F 86% 30.12 in 10.0 mi South 4.6 mph - N/A Snow Light Snow
5:55 PM 21.2 °F 13.6 °F 17.6 °F 86% 30.11 in 10.0 mi South 5.8 mph - N/A Snow Light Snow
6:15 PM 21.2 °F 12.6 °F 17.6 °F 86% 30.11 in 10.0 mi South 6.9 mph - N/A   Overcast
6:35 PM 21.2 °F 13.6 °F 17.6 °F 86% 30.10 in 10.0 mi South 5.8 mph - N/A   Overcast
6:55 PM 21.2 °F 14.9 °F 17.6 °F 86% 30.11 in 10.0 mi South 4.6 mph - N/A   Overcast
7:15 PM 21.2 °F 14.9 °F 17.6 °F 86% 30.09 in 10.0 mi South 4.6 mph - N/A   Overcast
7:35 PM 21.2 °F 14.9 °F 17.6 °F 86% 30.09 in 10.0 mi South 4.6 mph - N/A   Overcast
7:55 PM 23.0 °F 18.4 °F 17.6 °F 80% 30.09 in 10.0 mi South 3.5 mph - N/A   Mostly Cloudy
8:15 PM 23.0 °F - 17.6 °F 80% 30.08 in 10.0 mi Calm Calm - N/A   Mostly Cloudy
8:35 PM 23.0 °F 17.0 °F 17.6 °F 80% 30.08 in 10.0 mi South 4.6 mph - N/A   Overcast
8:55 PM 23.0 °F 17.0 °F 17.6 °F 80% 30.07 in 10.0 mi South 4.6 mph - N/A   Overcast
9:15 PM 23.0 °F - 19.4 °F 86% 30.07 in 10.0 mi Calm Calm - N/A   Overcast
9:35 PM 23.0 °F - 19.4 °F 86% 30.08 in 10.0 mi Calm Calm - N/A   Overcast
9:55 PM 23.0 °F 18.4 °F 19.4 °F 86% 30.07 in 10.0 mi SW 3.5 mph - N/A   Overcast
10:15 PM 23.0 °F - 19.4 °F 86% 30.07 in 10.0 mi Calm Calm - N/A   Overcast
10:35 PM 24.8 °F - 19.4 °F 80% 30.07 in 10.0 mi Calm Calm - N/A   Overcast
10:55 PM 24.8 °F - 19.4 °F 80% 30.07 in 10.0 mi Calm Calm - N/A   Overcast
11:15 PM 24.8 °F - 19.4 °F 80% 30.08 in 10.0 mi Calm Calm - N/A   Overcast
11:35 PM 24.8 °F - 19.4 °F 80% 30.08 in 10.0 mi Calm Calm - N/A   Overcast
11:55 PM 24.8 °F - 19.4 °F 80% 30.09 in 10.0 mi Calm Calm - N/A   Overcast